#timestamp,LO_Frequency,Hit,StdDev 
1575176415.7,286047004.3,Y
1575176435.5,286047004.4,P
1575176455.3,286047002.9,N
1575176475.2,286047004.3,N
1575176495.0,286047004.0,N
1575176495.9,286047004.0,N
1575176515.8,286047002.3,N
1575176535.6,286047002.6,N
1575176555.4,286047004.3,Y
1575176575.3,286046998.9,P
1575176595.1,286046999.5,N
1575176615.9,286046999.0,N
1575176635.7,286046998.1,N
1575176655.5,286047000.5,N
1575176675.4,286047000.4,N
1575176695.2,286047001.2,N
1575176715.0,286047000.6,N
1575176715.9,286047000.6,N
1575176735.8,286046998.2,N
1575176755.6,286046996.9,N
1575176775.5,286046999.4,N
1575176795.3,286046999.5,N
1575176815.1,286046998.6,N
1575176835.9,286046998.4,N
1575176855.7,286046999.5,N
1575176875.5,286046997.3,N
1575176895.4,286046997.0,N
1575176915.2,286046996.9,N
1575176935.1,286046999.6,N
1575176936.0,286046999.6,N
1575176955.8,286046999.2,N
1575176975.6,286046999.4,N
1575176995.5,286046998.9,N
1575177015.3,286046999.4,N
1575177035.2,286046999.0,N
1575177055.9,286046999.2,N
1575177075.7,286046998.7,N
1575177095.6,286046999.2,N
1575177115.4,286046999.4,N
1575177135.2,286046996.5,Y
1575177155.1,286046998.8,P
1575177156.0,286046998.8,P
1575177175.8,286046996.7,P
1575177195.7,286046997.4,N
1575177215.5,286046996.7,Y
1575177235.3,286047001.0,P
1575177255.2,286047001.0,N
1575177275.0,286047000.8,N
1575177275.9,286047000.8,N
1575177295.8,286047000.5,N
1575177315.6,286046998.5,N
1575177335.4,286046999.0,N
1575177355.3,286047000.5,N
1575177375.1,286047002.4,N
1575177395.8,286046998.4,N
1575177415.7,286046999.0,N
1575177435.5,286046996.8,N
1575177455.4,286046995.0,Y
1575177475.2,286046996.8,P
1575177495.0,286046995.2,P
1575177495.9,286046995.2,N
1575177515.8,286046995.5,N
1575177535.6,286046997.8,N
1575177555.4,286046995.7,N
1575177575.3,286046995.8,N
1575177595.1,286046996.4,N
1575177615.9,286046993.8,Y
1575177635.7,286046997.4,P
1575177655.5,286046996.6,P
1575177675.4,286046998.6,P
1575177695.2,286046999.4,N
1575177715.1,286046998.9,N
1575177716.0,286046998.9,N
1575177735.8,286046999.1,N
1575177755.6,286046999.5,N
1575177775.5,286046996.5,Y
1575177795.3,286047000.4,P
1575177815.1,286046999.9,N
1575177835.9,286047000.5,N
1575177855.7,286047000.9,N
1575177875.6,286047000.6,N
1575177895.4,286047002.7,Y
1575177915.2,286047000.6,P
1575177935.1,286046998.5,P
1575177936.0,286046998.5,N
1575177955.8,286046998.3,N
1575177975.7,286046999.6,N
1575177995.5,286046999.3,N
1575178015.3,286046996.6,Y
1575178035.2,286046996.7,P
1575178055.0,286046997.5,N
1575178055.9,286046997.5,N
1575178075.7,286046997.3,N
1575178095.6,286046997.7,N
1575178115.4,286046997.2,Y
1575178135.3,286047000.6,P
1575178155.1,286046998.6,N
1575178175.8,286046998.1,N
1575178195.7,286046998.6,N
1575178215.5,286046998.5,N
1575178235.4,286047002.0,N
1575178255.2,286047003.7,N
1575178275.0,286047001.7,N
1575178275.9,286047001.7,N
1575178295.8,286047001.7,N
1575178315.6,286047002.2,N
1575178335.4,286047002.4,N
1575178355.3,286047004.3,N
1575178375.1,286047002.5,N
1575178395.9,286046999.8,N
1575178415.7,286047002.3,N
1575178435.5,286047002.3,N
1575178455.4,286047002.5,N
1575178475.2,286047002.1,N
1575178495.0,286047001.3,N
1575178495.9,286047001.3,N
1575178515.8,286047002.0,N
1575178535.6,286047002.3,N
1575178555.5,286046999.7,N
1575178575.3,286047002.2,N
1575178595.1,286047003.5,N
1575178615.9,286047003.9,N
1575178635.7,286047001.7,N
1575178655.5,286046999.7,N
1575178675.4,286047000.5,N
1575178695.2,286047002.3,N
1575178715.1,286047002.3,N
1575178716.0,286047002.3,N
1575178735.8,286047001.0,N
1575178755.6,286046998.2,N
1575178775.5,286047001.1,N
1575178795.3,286046998.8,N
1575178815.2,286046998.3,N
1575178835.9,286046999.6,N
1575178855.7,286047000.7,N
1575178875.6,286046998.3,N
1575178895.4,286046998.8,N
1575178915.2,286046998.1,N
1575178935.1,286046998.5,N
1575178936.0,286046998.5,N
1575178955.8,286046997.2,N
1575178975.7,286046998.3,N
1575178995.5,286046998.8,N
1575179015.3,286046996.7,N
1575179035.2,286046997.5,N
1575179055.0,286046997.7,N
1575179055.9,286046997.7,N
1575179075.8,286046996.9,N
1575179095.6,286046997.2,N
1575179115.4,286046997.3,N
1575179135.3,286046995.0,N
1575179155.1,286046996.8,N
1575179175.8,286046999.5,N
1575179195.7,286046998.9,N
1575179215.5,286046998.4,N
1575179235.4,286046999.3,N
1575179255.2,286046996.7,N
1575179275.0,286046999.6,N
1575179275.9,286046999.6,N
1575179295.8,286046999.0,N
1575179315.6,286046996.7,N
1575179335.5,286046995.0,Y
1575179355.3,286047000.6,P
1575179375.1,286047000.8,N
1575179395.9,286047000.3,N
1575179415.7,286047002.4,N
1575179435.5,286047000.1,N
1575179455.4,286047001.0,N
1575179475.2,286047001.2,N
1575179495.1,286047001.2,N
1575179496.0,286047001.2,N
1575179515.8,286046998.3,N
1575179535.6,286047000.5,N
1575179555.5,286047002.2,N
1575179575.3,286047002.1,N
1575179595.1,286047002.2,N
1575179615.9,286047004.2,Y
1575179635.7,286047000.1,P
1575179655.6,286047002.3,P
1575179675.4,286047000.4,N
1575179695.2,286047002.6,Y
1575179715.1,286047000.9,P
1575179716.0,286047000.9,P
1575179735.8,286047001.2,P
1575179755.7,286046998.5,Y
1575179775.5,286046998.2,P
1575179795.3,286046997.3,N
1575179815.2,286046997.3,N
1575179835.0,286046996.7,N
1575179835.9,286046996.7,N
1575179855.7,286046997.1,N
1575179875.6,286046997.8,N
1575179895.4,286046997.7,N
1575179915.3,286046996.9,N
1575179935.1,286046999.6,N
1575179936.0,286046999.6,N
1575179955.8,286046996.7,N
1575179975.7,286046999.3,N
1575179995.5,286046997.1,N
